When you browse on this site, cookies collect data to enhance your experience and personalize the content and advertising you see.
Visit our Privacy Policy to learn more. By continuing to use the site, you agree to this use of cookies and data.
  • In Hungary
  • List of Countries
  • For 7 days
  • Water Temperature
  • Satellite Maps
  • Weather Map
  • News
  • Weather Widgets
  • user-avatar
    Login

    Hourly Weather Uchkeken

    Today, 22 February, Friday

    Time Temperature Precipitation Wind Pressure Humidity
    00:00 +1°C° 0 mm 1 mps 669 mmHg 67%
    01:00 +1°C° 0 mm 1 mps 669 mmHg 67%
    02:00 0°C° 0 mm 1 mps 669 mmHg 68%
    03:00 +1°C° 0 mm 1 mps 669 mmHg 66%
    04:00 0°C° 0 mm 1 mps 669 mmHg 68%
    05:00 0°C° 0 mm 1 mps 669 mmHg 71%
    06:00 0°C° 0 mm 1 mps 669 mmHg 74%
    07:00 0°C° 0 mm 1 mps 669 mmHg 74%
    08:00 0°C° 0 mm 1 mps 669 mmHg 75%
    09:00 +1°C° 0 mm 1 mps 670 mmHg 74%
    10:00 +1°C° 0 mm 1 mps 670 mmHg 73%
    11:00 +1°C° 0 mm 2 mps 669 mmHg 71%
    12:00 +2°C° 0 mm 2 mps 669 mmHg 69%
    13:00 +2°C° 0 mm 2 mps 669 mmHg 71%
    14:00 +2°C° 0 mm 2 mps 669 mmHg 73%
    15:00 +2°C° 0 mm 2 mps 669 mmHg 75%
    16:00 +1°C° 0 mm 2 mps 669 mmHg 80%
    17:00 +1°C° 0 mm 2 mps 669 mmHg 85%
    18:00 -1°C° 0 mm 2 mps 669 mmHg 90%
    19:00 -1°C° 0 mm 2 mps 670 mmHg 90%
    20:00 0°C° 0 mm 1 mps 670 mmHg 89%
    21:00 0°C° 0 mm 1 mps 670 mmHg 89%
    22:00 0°C° 0 mm 1 mps 670 mmHg 84%
    23:00 0°C° 0 mm 1 mps 670 mmHg 80%

    Tomorrow, 23 February, Saturday

    Time Temperature Precipitation Wind Pressure Humidity
    00:00 0°C° 0 mm 1 mps 670 mmHg 75%
    01:00 0°C° 0 mm 1 mps 670 mmHg 72%
    02:00 0°C° 0 mm 1 mps 670 mmHg 68%
    03:00 0°C° 0 mm 1 mps 670 mmHg 65%
    04:00 0°C° 0 mm 1 mps 671 mmHg 63%
    05:00 0°C° 0 mm 1 mps 671 mmHg 62%
    06:00 0°C° 0 mm 1 mps 671 mmHg 60%
    07:00 +1°C° 0 mm 1 mps 671 mmHg 57%
    08:00 +2°C° 0 mm 1 mps 672 mmHg 53%
    09:00 +3°C° 0 mm 1 mps 672 mmHg 50%
    10:00 +4°C° 0 mm 1 mps 672 mmHg 49%
    11:00 +4°C° 0 mm 2 mps 672 mmHg 48%
    12:00 +5°C° 0 mm 2 mps 673 mmHg 47%
    13:00 +5°C° 0 mm 2 mps 673 mmHg 49%
    14:00 +5°C° 0 mm 3 mps 673 mmHg 51%
    15:00 +5°C° 0 mm 3 mps 672 mmHg 53%
    16:00 +5°C° 0 mm 2 mps 672 mmHg 61%
    17:00 +4°C° 0 mm 2 mps 672 mmHg 69%
    18:00 +4°C° 0 mm 1 mps 672 mmHg 76%
    19:00 +3°C° 0 mm 1 mps 673 mmHg 80%
    20:00 +3°C° 0 mm 1 mps 673 mmHg 83%
    21:00 +1°C° 0 mm 0 mps 673 mmHg 86%
    22:00 +2°C° 0 mm 1 mps 673 mmHg 86%
    23:00 +2°C° 0 mm 1 mps 673 mmHg 87%

    Day after tomorrow, 24 February, Sunday

    Time Temperature Precipitation Wind Pressure Humidity
    00:00 +2°C° 0 mm 1 mps 673 mmHg 87%
    01:00 +2°C° 0 mm 1 mps 673 mmHg 88%
    02:00 +1°C° 0 mm 1 mps 673 mmHg 89%
    03:00 +1°C° 0 mm 1 mps 673 mmHg 90%
    04:00 +1°C° 0 mm 1 mps 673 mmHg 89%
    05:00 +1°C° 0 mm 1 mps 673 mmHg 88%
    06:00 +1°C° 0 mm 1 mps 673 mmHg 87%
    07:00 +1°C° 0.1 mm 1 mps 673 mmHg 85%
    08:00 +2°C° 0.1 mm 1 mps 674 mmHg 84%
    09:00 +2°C° 0.1 mm 1 mps 674 mmHg 82%
    10:00 +2°C° 0.2 mm 1 mps 674 mmHg 84%
    11:00 +1°C° 0.2 mm 2 mps 674 mmHg 86%
    12:00 +1°C° 0.2 mm 2 mps 674 mmHg 88%
    13:00 +1°C° 0.5 mm 2 mps 673 mmHg 90%
    14:00 -1°C° 0.5 mm 2 mps 673 mmHg 92%
    15:00 -2°C° 0.5 mm 3 mps 673 mmHg 93%
    16:00 -2°C° 0.7 mm 2 mps 673 mmHg 94%
    17:00 -3°C° 0.7 mm 2 mps 674 mmHg 95%
    18:00 -4°C° 0.7 mm 2 mps 674 mmHg 95%
    19:00 -4°C° 0.5 mm 2 mps 674 mmHg 95%
    20:00 -5°C° 0.5 mm 2 mps 674 mmHg 95%
    21:00 -5°C° 0.5 mm 2 mps 674 mmHg 95%
    22:00 -6°C° 0.2 mm 2 mps 675 mmHg 95%
    23:00 -6°C° 0.2 mm 2 mps 675 mmHg 95%

    25 February, Monday

    Time Temperature Precipitation Wind Pressure Humidity
    00:00 -6°C° 0.2 mm 2 mps 675 mmHg 95%
    01:00 -6°C° 0.1 mm 2 mps 675 mmHg 94%
    02:00 -7°C° 0.1 mm 2 mps 675 mmHg 94%
    03:00 -7°C° 0.1 mm 2 mps 675 mmHg 94%
    04:00 -7°C° 0 mm 2 mps 675 mmHg 94%
    05:00 -7°C° 0 mm 2 mps 674 mmHg 94%
    06:00 -8°C° 0 mm 2 mps 674 mmHg 94%
    07:00 -7°C° 0 mm 2 mps 675 mmHg 91%
    08:00 -7°C° 0 mm 3 mps 675 mmHg 88%
    09:00 -7°C° 0 mm 3 mps 675 mmHg 85%
    10:00 -7°C° 0 mm 4 mps 675 mmHg 78%
    11:00 -5°C° 0 mm 4 mps 675 mmHg 71%
    12:00 -4°C° 0 mm 4 mps 675 mmHg 65%
    13:00 -4°C° 0 mm 4 mps 674 mmHg 65%
    14:00 -5°C° 0 mm 5 mps 674 mmHg 66%
    15:00 -4°C° 0 mm 5 mps 673 mmHg 67%
    16:00 -4°C° 0 mm 4 mps 673 mmHg 72%
    17:00 -5°C° 0 mm 4 mps 673 mmHg 78%
    18:00 -6°C° 0 mm 3 mps 672 mmHg 83%
    19:00 -6°C° 0 mm 3 mps 672 mmHg 82%
    20:00 -6°C° 0 mm 3 mps 672 mmHg 80%
    21:00 -6°C° 0 mm 3 mps 672 mmHg 79%
    22:00 -6°C° 0 mm 3 mps 672 mmHg 79%
    23:00 -6°C° 0 mm 3 mps 672 mmHg 79%

    26 February, Tuesday

    Time Temperature Precipitation Wind Pressure Humidity
    00:00 -5°C° 0 mm 2 mps 671 mmHg 78%
    01:00 -5°C° 0 mm 2 mps 671 mmHg 77%
    02:00 -4°C° 0 mm 2 mps 670 mmHg 75%
    03:00 -4°C° 0 mm 2 mps 670 mmHg 74%
    04:00 -4°C° 0 mm 2 mps 669 mmHg 71%
    05:00 -4°C° 0 mm 2 mps 668 mmHg 68%
    06:00 -4°C° 0 mm 2 mps 668 mmHg 65%
    07:00 -3°C° 0 mm 2 mps 667 mmHg 63%
    08:00 -2°C° 0 mm 2 mps 667 mmHg 62%
    09:00 0°C° 0 mm 1 mps 666 mmHg 60%
    10:00 -1°C° 0 mm 2 mps 665 mmHg 60%
    11:00 -1°C° 0 mm 2 mps 664 mmHg 61%
    12:00 +1°C° 0 mm 2 mps 664 mmHg 61%
    13:00 0°C° 0.3 mm 3 mps 663 mmHg 68%
    14:00 -2°C° 0.3 mm 4 mps 663 mmHg 76%
    15:00 -2°C° 0.3 mm 5 mps 662 mmHg 83%
    16:00 -4°C° 0.5 mm 5 mps 662 mmHg 87%
    17:00 -5°C° 0.5 mm 5 mps 662 mmHg 91%
    18:00 -6°C° 0.5 mm 5 mps 661 mmHg 95%
    19:00 -5°C° 0.2 mm 4 mps 661 mmHg 94%
    20:00 -6°C° 0.2 mm 3 mps 661 mmHg 94%
    21:00 -6°C° 0.2 mm 3 mps 661 mmHg 94%
    22:00 -5°C° 0.1 mm 2 mps 660 mmHg 94%
    23:00 -6°C° 0.1 mm 2 mps 660 mmHg 94%

    27 February, Wednesday

    Time Temperature Precipitation Wind Pressure Humidity
    00:00 -6°C° 0.1 mm 2 mps 659 mmHg 95%
    01:00 -4°C° 0.3 mm 1 mps 659 mmHg 95%
    02:00 -4°C° 0.3 mm 1 mps 658 mmHg 95%
    03:00 -5°C° 0.3 mm 0 mps 658 mmHg 96%
    04:00 -4°C° 0.3 mm 1 mps 658 mmHg 96%
    05:00 -4°C° 0.3 mm 1 mps 658 mmHg 96%
    06:00 -4°C° 0.3 mm 1 mps 658 mmHg 96%
    07:00 -4°C° 0.2 mm 1 mps 658 mmHg 94%
    08:00 -4°C° 0.2 mm 1 mps 658 mmHg 93%
    09:00 -3°C° 0.2 mm 1 mps 658 mmHg 91%
    10:00 -5°C° 0.1 mm 2 mps 658 mmHg 90%
    11:00 -4°C° 0.1 mm 2 mps 658 mmHg 89%
    12:00 -3°C° 0.1 mm 2 mps 658 mmHg 87%
    13:00 -3°C° 0 mm 2 mps 658 mmHg 86%
    14:00 -3°C° 0 mm 2 mps 658 mmHg 85%
    15:00 -2°C° 0 mm 3 mps 658 mmHg 84%
    16:00 -3°C° 0.1 mm 2 mps 658 mmHg 87%
    17:00 -4°C° 0.1 mm 2 mps 659 mmHg 91%
    18:00 -4°C° 0.1 mm 2 mps 659 mmHg 95%
    19:00 -4°C° 0.2 mm 2 mps 659 mmHg 95%
    20:00 -3°C° 0.2 mm 1 mps 660 mmHg 96%
    21:00 -3°C° 0.2 mm 1 mps 660 mmHg 96%
    22:00 -3°C° 0.1 mm 1 mps 660 mmHg 96%
    23:00 -3°C° 0.1 mm 1 mps 660 mmHg 96%
    Show more